Location: Bogotá
(4.6533°N, 74.0837°W)
Time: 15:13:52
(UTC+00:00)

ISS - Pass Details

Date: 10 July 2025
Orbit: 413 x 417 km, 51.6° (Epoch: 13 July)

Event Time Altitude Azimuth Distance (km) Brightness Sun altitude
Rises 10:22:55 0° 317° (NW) 2,341 -0.2 -7.2°
Reaches altitude 10° 10:25:01 10° 312° (NW) 1,481 -1.2 -6.7°
Maximum altitude 10:28:16 52° 235° (SW) 519 -3.6 -6.0°
Drops below altitude 10° 10:31:32 10° 157° (SSE) 1,485 -1.0 -5.2°
Sets 10:33:39 0° 152° (SSE) 2,348 0.1 -4.7°
